QPF
0.01 0.02 0.02 0.02 0.03 0.04 0.04 0.03 0.02 0.02 0.01 0.02 0.02 0.03 0.02 0.01 0.03 0.05 0.07 0.05 0.04 0.05 0.10 0.13 0.13 0.10 0.07 0.06 0.07 0.12 0.15 0.17 0.18 0.14 0.09 0.06 0.06 0.06 0.08 0.09 0.11 0.14 0.10 0.11 0.11 0.11 0.14 0.14 0.10
0.01 0.03 0.02 0.02 0.05 0.03 0.03 0.03 0.02 0.01 0.01 0.01 0.01 0.01 0.02 0.01 0.02 0.03 0.04 0.06 0.04 0.05 0.06 0.09 0.09 0.07 0.07 0.05 0.05 0.07 0.09 0.10 0.09 0.07 0.06 0.06 0.07 0.07 0.07 0.07 0.10 0.12 0.13 0.12 0.10 0.11 0.16 0.13 0.09
0.03 0.04 0.03 0.04 0.05 0.04 0.03 0.03 0.01 0.01 0.01 0.01 0.00 0.00 0.01 0.01 0.02 0.02 0.03 0.03 0.04 0.05 0.05 0.07 0.07 0.05 0.06 0.06 0.04 0.04 0.05 0.05 0.05 0.05 0.05 0.06 0.07 0.08 0.07 0.08 0.09 0.10 0.13 0.13 0.13 0.14 0.17 0.16 0.10
0.03 0.03 0.03 0.04 0.03 0.03 0.02 0.02 0.01 0.01 0.01 0.00 0.00 0.00 0.01 0.01 0.02 0.02 0.03 0.02 0.02 0.04 0.06 0.08 0.09 0.06 0.05 0.05 0.05 0.04 0.04 0.04 0.04 0.04 0.04 0.05 0.05 0.07 0.07 0.08 0.09 0.08 0.07 0.10 0.13 0.15 0.18 0.19 0.13
0.03 0.04 0.04 0.03 0.03 0.03 0.02 0.02 0.02 0.01 0.01 0.01 0.01 0.00 0.01 0.03 0.03 0.02 0.02 0.01 0.03 0.04 0.05 0.10 0.11 0.07 0.05 0.03 0.04 0.03 0.04 0.04 0.03 0.02 0.03 0.05 0.07 0.09 0.09 0.11 0.09 0.08 0.06 0.06 0.11 0.13 0.16 0.19 0.24
0.03 0.05 0.05 0.03 0.03 0.03 0.02 0.02 0.02 0.02 0.01 0.01 0.01 0.00 0.02 0.03 0.03 0.03 0.02 0.02 0.03 0.03 0.05 0.09 0.13 0.09 0.08 0.06 0.05 0.04 0.03 0.04 0.03 0.02 0.04 0.06 0.10 0.12 0.10 0.10 0.09 0.08 0.07 0.07 0.11 0.13 0.16 0.27 0.33
0.02 0.04 0.05 0.02 0.02 0.03 0.02 0.02 0.01 0.01 0.01 0.01 0.00 0.00 0.02 0.03 0.03 0.03 0.02 0.02 0.02 0.01 0.02 0.04 0.11 0.12 0.10 0.09 0.07 0.05 0.05 0.05 0.05 0.05 0.06 0.08 0.08 0.10 0.09 0.09 0.10 0.09 0.07 0.08 0.10 0.14 0.21 0.34 0.26
0.02 0.03 0.03 0.02 0.02 0.02 0.02 0.01 0.01 0.01 0.01 0.00 0.00 0.01 0.03 0.04 0.03 0.02 0.02 0.02 0.02 0.02 0.02 0.03 0.07 0.10 0.10 0.11 0.10 0.08 0.07 0.05 0.05 0.06 0.09 0.09 0.09 0.11 0.11 0.09 0.09 0.10 0.09 0.08 0.09 0.14 0.21 0.26 0.17
0.02 0.03 0.01 0.01 0.01 0.02 0.02 0.01 0.01 0.01 0.01 0.00 0.01 0.01 0.03 0.03 0.02 0.01 0.02 0.03 0.03 0.02 0.04 0.03 0.04 0.08 0.10 0.10 0.12 0.11 0.10 0.07 0.05 0.05 0.07 0.09 0.07 0.08 0.09 0.09 0.10 0.12 0.11 0.10 0.10 0.13 0.16 0.14 0.13
0.01 0.01 0.01 0.00 0.01 0.01 0.01 0.01 0.01 0.01 0.01 0.01 0.00 0.01 0.02 0.01 0.01 0.01 0.02 0.02 0.02 0.02 0.03 0.03 0.02 0.03 0.05 0.06 0.06 0.05 0.06 0.06 0.05 0.03 0.04 0.04 0.03 0.04 0.04 0.07 0.09 0.11 0.11 0.10 0.11 0.12 0.11 0.10 0.09
0.01 0.01 0.01 0.01 0.01 0.01 0.01 0.01 0.01 0.00 0.01 0.01 0.01 0.01 0.02 0.01 0.01 0.01 0.01 0.01 0.01 0.01 0.02 0.02 0.02 0.03 0.03 0.03 0.03 0.04 0.04 0.05 0.04 0.03 0.02 0.02 0.02 0.03 0.04 0.04 0.05 0.05 0.06 0.05 0.07 0.07 0.05 0.05 0.05
0.01 0.00 0.01 0.01 0.01 0.01 0.00 0.00 0.00 0.00 0.00 0.00 0.01 0.01 0.01 0.01 0.01 0.01 0.01 0.01 0.02 0.03 0.03 0.02 0.02 0.03 0.03 0.02 0.02 0.03 0.04 0.04 0.03 0.02 0.02 0.01 0.01 0.01 0.02 0.02 0.02 0.02 0.02 0.03 0.03 0.03 0.03 0.03 0.03
0.00 0.00 0.00 0.01 0.01 0.01 0.00 0.00 0.00 0.01 0.01 0.01 0.00 0.00 0.01 0.01 0.01 0.01 0.02 0.03 0.04 0.04 0.03 0.02 0.02 0.02 0.03 0.03 0.02 0.02 0.03 0.03 0.03 0.02 0.02 0.01 0.01 0.01 0.02 0.02 0.02 0.02 0.03 0.03 0.02 0.03 0.05 0.04 0.04
0.00 0.00 0.00 0.00 0.01 0.01 0.00 0.00 0.00 0.01 0.01 0.01 0.00 0.01 0.01 0.02 0.01 0.01 0.01 0.02 0.03 0.03 0.03 0.01 0.02 0.02 0.03 0.04 0.02 0.02 0.02 0.02 0.02 0.02 0.02 0.02 0.02 0.02 0.03 0.03 0.02 0.02 0.03 0.03 0.03 0.04 0.04 0.04 0.04
0.00 0.00 0.00 0.00 0.01 0.00 0.01 0.01 0.01 0.01 0.01 0.01 0.00 0.01 0.01 0.02 0.02 0.01 0.01 0.01 0.01 0.02 0.02 0.02 0.03 0.03 0.04 0.03 0.02 0.02 0.02 0.02 0.02 0.02 0.03 0.03 0.03 0.03 0.03 0.03 0.02 0.01 0.02 0.02 0.03 0.03 0.04 0.03 0.03
0.01 0.01 0.01 0.00 0.00 0.00 0.00 0.01 0.01 0.01 0.01 0.01 0.00 0.00 0.01 0.02 0.02 0.02 0.02 0.01 0.01 0.01 0.01 0.02 0.03 0.04 0.03 0.02 0.02 0.01 0.01 0.02 0.02 0.03 0.03 0.03 0.04 0.05 0.04 0.04 0.03 0.01 0.02 0.03 0.03 0.04 0.03 0.03 0.02
0.02 0.02 0.02 0.01 0.00 0.00 0.00 0.01 0.01 0.02 0.01 0.00 0.00 0.00 0.01 0.01 0.02 0.02 0.02 0.02 0.02 0.02 0.01 0.01 0.03 0.04 0.03 0.02 0.02 0.02 0.01 0.01 0.02 0.02 0.02 0.02 0.02 0.03 0.04 0.04 0.04 0.02 0.03 0.04 0.04 0.04 0.03 0.02 0.02
0.01 0.01 0.01 0.01 0.01 0.00 0.00 0.01 0.01 0.01 0.01 0.00 0.00 0.00 0.00 0.01 0.02 0.02 0.01 0.01 0.01 0.01 0.01 0.01 0.03 0.03 0.02 0.02 0.01 0.01 0.02 0.02 0.02 0.02 0.01 0.02 0.02 0.02 0.03 0.04 0.03 0.05 0.06 0.06 0.05 0.04 0.03 0.03 0.02
0.00 0.00 0.01 0.01 0.00 0.00 0.00 0.01 0.01 0.01 0.01 0.00 0.00 0.00 0.00 0.01 0.01 0.01 0.01 0.00 0.00 0.01 0.01 0.01 0.02 0.03 0.02 0.02 0.01 0.02 0.02 0.02 0.02 0.03 0.02 0.01 0.03 0.03 0.03 0.04 0.05 0.07 0.05 0.05 0.05 0.05 0.03 0.05 0.05
0.00 0.00 0.00 0.00 0.00 0.00 0.00 0.01 0.01 0.01 0.01 0.00 0.00 0.00 0.00 0.01 0.01 0.01 0.01 0.00 0.00 0.01 0.01 0.01 0.02 0.03 0.03 0.02 0.02 0.02 0.02 0.03 0.04 0.03 0.02 0.02 0.03 0.02 0.02 0.03 0.05 0.06 0.05 0.04 0.03 0.04 0.03 0.05 0.05
0.01 0.01 0.00 0.00 0.01 0.01 0.01 0.01 0.01 0.01 0.01 0.00 0.01 0.01 0.01 0.01 0.02 0.01 0.01 0.01 0.01 0.01 0.01 0.02 0.03 0.03 0.03 0.03 0.02 0.02 0.02 0.03 0.03 0.02 0.02 0.03 0.03 0.01 0.01 0.03 0.04 0.05 0.06 0.07 0.05 0.04 0.03 0.04 0.06
0.01 0.01 0.01 0.01 0.01 0.01 0.01 0.01 0.01 0.01 0.01 0.01 0.01 0.01 0.01 0.01 0.02 0.02 0.03 0.03 0.01 0.01 0.00 0.02 0.03 0.04 0.03 0.03 0.02 0.02 0.02 0.03 0.02 0.02 0.02 0.04 0.03 0.01 0.02 0.04 0.05 0.06 0.07 0.08 0.06 0.05 0.05 0.05 0.07
0.01 0.01 0.01 0.01 0.01 0.01 0.00 0.00 0.00 0.01 0.01 0.01 0.01 0.01 0.01 0.01 0.02 0.02 0.04 0.03 0.01 0.01 0.00 0.02 0.03 0.03 0.03 0.03 0.04 0.04 0.03 0.03 0.02 0.02 0.02 0.03 0.02 0.02 0.03 0.04 0.07 0.07 0.07 0.08 0.07 0.07 0.07 0.07 0.08
0.01 0.01 0.01 0.00 0.00 0.00 0.00 0.00 0.00 0.00 0.00 0.01 0.01 0.01 0.01 0.01 0.01 0.03 0.04 0.03 0.01 0.01 0.01 0.03 0.05 0.04 0.04 0.04 0.04 0.04 0.04 0.03 0.02 0.02 0.03 0.04 0.03 0.04 0.04 0.04 0.06 0.07 0.09 0.09 0.06 0.06 0.07 0.10 0.09
0.01 0.01 0.01 0.01 0.01 0.00 0.00 0.00 0.00 0.00 0.00 0.00 0.00 0.01 0.01 0.01 0.02 0.04 0.04 0.03 0.02 0.02 0.02 0.04 0.06 0.06 0.05 0.04 0.04 0.04 0.03 0.02 0.01 0.01 0.02 0.03 0.03 0.03 0.02 0.03 0.03 0.05 0.07 0.06 0.05 0.05 0.05 0.07 0.08
0.01 0.01 0.01 0.02 0.02 0.01 0.00 0.00 0.00 0.00 0.00 0.00 0.01 0.01 0.01 0.01 0.03 0.04 0.02 0.04 0.02 0.03 0.05 0.09 0.08 0.08 0.07 0.05 0.04 0.03 0.02 0.01 0.01 0.01 0.01 0.02 0.02 0.02 0.02 0.02 0.03 0.04 0.03 0.03 0.04 0.06 0.06 0.05 0.06
0.01 0.02 0.01 0.01 0.00 0.00 0.00 0.00 0.00 0.00 0.01 0.00 0.01 0.01 0.01 0.01 0.01 0.02 0.03 0.03 0.04 0.05 0.07 0.08 0.08 0.06 0.05 0.04 0.02 0.03 0.01 0.01 0.01 0.01 0.02 0.03 0.03 0.02 0.02 0.03 0.02 0.02 0.03 0.03 0.03 0.03 0.03 0.03 0.04
0.01 0.01 0.00 0.00 0.00 0.00 0.00 0.00 0.00 0.01 0.01 0.00 0.01 0.01 0.01 0.01 0.01 0.02 0.03 0.05 0.05 0.05 0.06 0.06 0.06 0.05 0.04 0.03 0.03 0.02 0.02 0.02 0.02 0.02 0.03 0.03 0.02 0.02 0.02 0.02 0.01 0.02 0.02 0.01 0.01 0.01 0.03 0.03 0.02
0.01 0.01 0.01 0.00 0.00 0.00 0.00 0.00 0.00 0.00 0.00 0.00 0.02 0.01 0.02 0.01 0.01 0.01 0.02 0.03 0.02 0.03 0.05 0.06 0.06 0.04 0.03 0.03 0.02 0.02 0.02 0.02 0.03 0.03 0.03 0.03 0.02 0.01 0.01 0.01 0.01 0.01 0.01 0.01 0.02 0.02 0.02 0.02 0.03
0.01 0.01 0.01 0.00 0.00 0.00 0.00 0.00 0.00 0.00 0.00 0.01 0.01 0.01 0.01 0.01 0.01 0.01 0.01 0.01 0.02 0.02 0.03 0.04 0.04 0.04 0.03 0.03 0.03 0.03 0.02 0.02 0.02 0.02 0.02 0.02 0.02 0.01 0.02 0.01 0.01 0.02 0.02 0.03 0.03 0.02 0.02 0.03 0.04
MSLP
1008.37 1009.20 1010.08 1010.85 1011.37 1011.58 1011.45 1011.04 1010.48 1009.91 1009.47 1009.25 1009.27 1009.49 1009.81 1010.12 1010.31 1010.30 1010.08 1009.71 1009.26 1008.84 1008.54 1008.41 1008.46 1008.65 1008.90 1009.17 1009.41 1009.60 1009.78 1009.98 1010.27 1010.67 1011.20 1011.81 1012.46 1013.07 1013.57 1013.94 1014.16 1014.27 1014.32 1014.38 1014.48 1014.64 1014.86 1015.12 1015.37
1008.57 1009.51 1010.43 1011.17 1011.62 1011.71 1011.46 1010.94 1010.28 1009.66 1009.20 1008.97 1009.00 1009.23 1009.56 1009.86 1010.04 1010.02 1009.83 1009.50 1009.14 1008.83 1008.65 1008.64 1008.79 1009.04 1009.34 1009.62 1009.84 1010.01 1010.15 1010.33 1010.60 1011.00 1011.52 1012.13 1012.76 1013.35 1013.84 1014.17 1014.37 1014.46 1014.49 1014.53 1014.61 1014.76 1014.97 1015.20 1015.43
1008.92 1009.90 1010.80 1011.47 1011.80 1011.76 1011.38 1010.77 1010.07 1009.43 1008.99 1008.80 1008.86 1009.11 1009.44 1009.73 1009.88 1009.85 1009.67 1009.38 1009.08 1008.86 1008.79 1008.89 1009.13 1009.46 1009.80 1010.10 1010.31 1010.46 1010.58 1010.73 1010.98 1011.36 1011.86 1012.44 1013.05 1013.61 1014.06 1014.36 1014.54 1014.61 1014.64 1014.68 1014.77 1014.92 1015.11 1015.33 1015.53
1009.38 1010.35 1011.17 1011.71 1011.90 1011.72 1011.23 1010.56 1009.84 1009.25 1008.87 1008.75 1008.87 1009.15 1009.49 1009.76 1009.88 1009.83 1009.64 1009.37 1009.13 1008.99 1009.00 1009.19 1009.51 1009.89 1010.26 1010.56 1010.77 1010.90 1011.00 1011.14 1011.37 1011.73 1012.21 1012.76 1013.33 1013.85 1014.26 1014.54 1014.70 1014.77 1014.81 1014.86 1014.96 1015.12 1015.31 1015.52 1015.70
1009.88 1010.78 1011.47 1011.86 1011.89 1011.58 1011.01 1010.32 1009.64 1009.13 1008.85 1008.83 1009.03 1009.35 1009.69 1009.95 1010.04 1009.97 1009.77 1009.52 1009.31 1009.23 1009.31 1009.55 1009.91 1010.32 1010.70 1010.99 1011.19 1011.31 1011.40 1011.53 1011.76 1012.10 1012.56 1013.08 1013.62 1014.10 1014.47 1014.73 1014.87 1014.94 1015.00 1015.07 1015.19 1015.36 1015.56 1015.75 1015.91
1010.36 1011.12 1011.65 1011.87 1011.75 1011.34 1010.73 1010.07 1009.48 1009.08 1008.93 1009.02 1009.31 1009.68 1010.03 1010.27 1010.34 1010.25 1010.04 1009.81 1009.64 1009.59 1009.71 1009.98 1010.36 1010.76 1011.12 1011.39 1011.57 1011.67 1011.76 1011.90 1012.13 1012.47 1012.92 1013.42 1013.93 1014.37 1014.71 1014.93 1015.07 1015.14 1015.20 1015.30 1015.44 1015.62 1015.82 1016.00 1016.13
1010.71 1011.32 1011.68 1011.73 1011.49 1011.02 1010.42 1009.83 1009.36 1009.10 1009.10 1009.31 1009.68 1010.09 1010.45 1010.68 1010.73 1010.63 1010.43 1010.22 1010.08 1010.07 1010.22 1010.50 1010.86 1011.23 1011.55 1011.78 1011.93 1012.02 1012.10 1012.25 1012.49 1012.85 1013.29 1013.79 1014.26 1014.67 1014.98 1015.17 1015.28 1015.34 1015.41 1015.51 1015.66 1015.84 1016.04 1016.20 1016.31
1010.89 1011.34 1011.53 1011.45 1011.13 1010.64 1010.11 1009.62 1009.30 1009.20 1009.33 1009.65 1010.08 1010.52 1010.89 1011.10 1011.15 1011.06 1010.88 1010.71 1010.61 1010.64 1010.81 1011.08 1011.41 1011.74 1012.01 1012.19 1012.30 1012.37 1012.45 1012.61 1012.87 1013.24 1013.69 1014.16 1014.62 1014.99 1015.26 1015.41 1015.49 1015.53 1015.59 1015.68 1015.82 1016.00 1016.18 1016.32 1016.40
1010.89 1011.19 1011.24 1011.07 1010.72 1010.27 1009.82 1009.48 1009.31 1009.35 1009.60 1010.00 1010.47 1010.92 1011.28 1011.48 1011.53 1011.46 1011.33 1011.22 1011.18 1011.25 1011.44 1011.72 1012.02 1012.29 1012.51 1012.64 1012.70 1012.75 1012.83 1013.00 1013.27 1013.64 1014.09 1014.55 1014.98 1015.31 1015.53 1015.65 1015.69 1015.70 1015.72 1015.79 1015.91 1016.07 1016.23 1016.34 1016.39
1010.75 1010.92 1010.88 1010.65 1010.31 1009.93 1009.60 1009.40 1009.38 1009.55 1009.88 1010.33 1010.81 1011.24 1011.57 1011.77 1011.83 1011.79 1011.72 1011.68 1011.72 1011.85 1012.07 1012.35 1012.63 1012.87 1013.03 1013.12 1013.15 1013.18 1013.25 1013.41 1013.68 1014.05 1014.49 1014.92 1015.31 1015.61 1015.79 1015.86 1015.85 1015.83 1015.82 1015.85 1015.94 1016.06 1016.19 1016.28 1016.30
1010.54 1010.61 1010.51 1010.27 1009.98 1009.69 1009.48 1009.42 1009.51 1009.77 1010.15 1010.60 1011.05 1011.45 1011.74 1011.91 1011.99 1012.00 1012.00 1012.04 1012.15 1012.35 1012.62 1012.91 1013.19 1013.40 1013.54 1013.60 1013.61 1013.63 1013.69 1013.84 1014.10 1014.45 1014.85 1015.25 1015.60 1015.85 1015.99 1016.02 1015.98 1015.92 1015.88 1015.87 1015.92 1016.00 1016.09 1016.15 1016.15
1010.34 1010.35 1010.22 1010.00 1009.76 1009.57 1009.48 1009.52 1009.69 1009.99 1010.37 1010.79 1011.18 1011.52 1011.76 1011.91 1012.00 1012.05 1012.12 1012.23 1012.43 1012.69 1013.00 1013.33 1013.62 1013.84 1013.97 1014.03 1014.04 1014.06 1014.11 1014.25 1014.48 1014.80 1015.15 1015.51 1015.81 1016.02 1016.12 1016.13 1016.07 1015.99 1015.92 1015.88 1015.89 1015.93 1015.98 1016.00 1015.97
1010.24 1010.20 1010.06 1009.88 1009.71 1009.60 1009.59 1009.69 1009.90 1010.20 1010.54 1010.88 1011.20 1011.45 1011.64 1011.77 1011.86 1011.95 1012.07 1012.25 1012.51 1012.82 1013.18 1013.54 1013.85 1014.10 1014.26 1014.35 1014.39 1014.42 1014.48 1014.60 1014.80 1015.06 1015.36 1015.66 1015.92 1016.09 1016.18 1016.18 1016.12 1016.04 1015.95 1015.89 1015.86 1015.86 1015.87 1015.85 1015.79
1010.26 1010.20 1010.07 1009.92 1009.81 1009.76 1009.81 1009.93 1010.13 1010.37 1010.64 1010.88 1011.10 1011.28 1011.41 1011.51 1011.61 1011.72 1011.88 1012.10 1012.39 1012.73 1013.11 1013.50 1013.85 1014.14 1014.35 1014.50 1014.59 1014.66 1014.73 1014.84 1015.01 1015.22 1015.46 1015.70 1015.91 1016.06 1016.15 1016.17 1016.13 1016.05 1015.97 1015.90 1015.85 1015.80 1015.76 1015.71 1015.62
1010.40 1010.33 1010.22 1010.11 1010.05 1010.04 1010.11 1010.22 1010.36 1010.52 1010.68 1010.82 1010.94 1011.04 1011.12 1011.20 1011.30 1011.43 1011.60 1011.83 1012.12 1012.47 1012.84 1013.24 1013.62 1013.96 1014.24 1014.47 1014.64 1014.76 1014.87 1014.98 1015.11 1015.26 1015.44 1015.62 1015.79 1015.93 1016.03 1016.07 1016.07 1016.04 1015.98 1015.90 1015.83 1015.75 1015.66 1015.56 1015.44
1010.61 1010.55 1010.47 1010.41 1010.39 1010.42 1010.48 1010.55 1010.61 1010.66 1010.70 1010.73 1010.75 1010.78 1010.83 1010.91 1011.01 1011.14 1011.32 1011.53 1011.79 1012.10 1012.45 1012.83 1013.22 1013.61 1013.97 1014.28 1014.54 1014.74 1014.89 1015.01 1015.11 1015.21 1015.32 1015.44 1015.57 1015.69 1015.81 1015.90 1015.95 1015.96 1015.94 1015.87 1015.78 1015.67 1015.54 1015.39 1015.24
1010.81 1010.78 1010.76 1010.77 1010.81 1010.87 1010.91 1010.92 1010.89 1010.82 1010.73 1010.64 1010.58 1010.56 1010.59 1010.67 1010.79 1010.93 1011.09 1011.27 1011.48 1011.72 1012.01 1012.35 1012.74 1013.16 1013.59 1013.99 1014.33 1014.61 1014.82 1014.95 1015.02 1015.07 1015.12 1015.18 1015.27 1015.38 1015.51 1015.64 1015.75 1015.82 1015.83 1015.79 1015.69 1015.55 1015.38 1015.20 1015.03
1010.95 1010.98 1011.06 1011.17 1011.29 1011.38 1011.41 1011.36 1011.22 1011.01 1010.79 1010.59 1010.44 1010.38 1010.41 1010.51 1010.66 1010.82 1010.97 1011.12 1011.26 1011.43 1011.64 1011.92 1012.28 1012.71 1013.18 1013.65 1014.08 1014.43 1014.68 1014.83 1014.89 1014.89 1014.87 1014.87 1014.92 1015.02 1015.16 1015.33 1015.49 1015.61 1015.67 1015.65 1015.56 1015.40 1015.20 1015.00 1014.81
1010.99 1011.13 1011.35 1011.60 1011.82 1011.97 1012.00 1011.87 1011.61 1011.27 1010.89 1010.57 1010.34 1010.24 1010.28 1010.41 1010.60 1010.79 1010.96 1011.08 1011.17 1011.25 1011.38 1011.59 1011.90 1012.32 1012.81 1013.33 1013.83 1014.24 1014.53 1014.69 1014.73 1014.69 1014.62 1014.56 1014.56 1014.64 1014.79 1014.99 1015.19 1015.36 1015.47 1015.48 1015.39 1015.23 1015.02 1014.80 1014.62
1010.93 1011.24 1011.64 1012.06 1012.42 1012.65 1012.67 1012.47 1012.08 1011.57 1011.03 1010.56 1010.24 1010.09 1010.13 1010.30 1010.55 1010.80 1011.00 1011.12 1011.17 1011.20 1011.25 1011.38 1011.64 1012.03 1012.52 1013.07 1013.60 1014.05 1014.38 1014.55 1014.57 1014.50 1014.38 1014.27 1014.24 1014.29 1014.44 1014.66 1014.90 1015.12 1015.26 1015.30 1015.24 1015.09 1014.88 1014.67 1014.49
1010.84 1011.34 1011.95 1012.58 1013.10 1013.40 1013.42 1013.13 1012.60 1011.89 1011.16 1010.52 1010.08 1009.86 1009.89 1010.10 1010.40 1010.73 1010.98 1011.14 1011.20 1011.20 1011.20 1011.27 1011.48 1011.83 1012.30 1012.85 1013.40 1013.88 1014.22 1014.41 1014.43 1014.33 1014.18 1014.04 1013.97 1014.01 1014.15 1014.39 1014.66 1014.91 1015.10 1015.18 1015.15 1015.02 1014.83 1014.64 1014.48
1010.76 1011.48 1012.33 1013.17 1013.84 1014.22 1014.22 1013.83 1013.12 1012.20 1011.24 1010.40 1009.79 1009.48 1009.47 1009.70 1010.07 1010.47 1010.81 1011.04 1011.13 1011.15 1011.14 1011.18 1011.35 1011.66 1012.11 1012.65 1013.21 1013.70 1014.06 1014.26 1014.29 1014.20 1014.04 1013.88 1013.80 1013.83 1013.97 1014.22 1014.52 1014.80 1015.03 1015.15 1015.16 1015.06 1014.91 1014.74 1014.61
1010.76 1011.71 1012.79 1013.82 1014.63 1015.05 1015.01 1014.50 1013.59 1012.44 1011.23 1010.16 1009.36 1008.92 1008.84 1009.06 1009.48 1009.96 1010.40 1010.71 1010.89 1010.96 1010.97 1011.02 1011.18 1011.47 1011.90 1012.43 1012.98 1013.49 1013.87 1014.10 1014.15 1014.08 1013.94 1013.80 1013.73 1013.76 1013.92 1014.18 1014.50 1014.82 1015.08 1015.24 1015.29 1015.24 1015.12 1014.98 1014.89
1010.90 1012.05 1013.32 1014.50 1015.40 1015.84 1015.73 1015.08 1013.97 1012.57 1011.11 1009.79 1008.78 1008.18 1008.00 1008.19 1008.63 1009.18 1009.71 1010.13 1010.41 1010.56 1010.64 1010.73 1010.90 1011.20 1011.62 1012.15 1012.71 1013.22 1013.64 1013.90 1014.00 1013.98 1013.88 1013.78 1013.74 1013.81 1013.99 1014.28 1014.62 1014.96 1015.25 1015.46 1015.55 1015.54 1015.46 1015.35 1015.28
1011.17 1012.46 1013.86 1015.14 1016.08 1016.50 1016.31 1015.51 1014.21 1012.58 1010.88 1009.33 1008.12 1007.36 1007.06 1007.18 1007.61 1008.20 1008.80 1009.31 1009.69 1009.94 1010.11 1010.27 1010.48 1010.81 1011.25 1011.78 1012.36 1012.90 1013.35 1013.66 1013.83 1013.87 1013.85 1013.82 1013.83 1013.94 1014.16 1014.48 1014.84 1015.21 1015.54 1015.77 1015.90 1015.93 1015.89 1015.82 1015.77
1011.52 1012.90 1014.36 1015.66 1016.59 1016.96 1016.67 1015.75 1014.29 1012.49 1010.60 1008.87 1007.48 1006.56 1006.14 1006.18 1006.56 1007.14 1007.77 1008.35 1008.82 1009.16 1009.42 1009.66 1009.94 1010.31 1010.79 1011.35 1011.94 1012.52 1013.01 1013.39 1013.63 1013.76 1013.82 1013.88 1013.97 1014.14 1014.41 1014.76 1015.15 1015.54 1015.89 1016.16 1016.32 1016.39 1016.39 1016.35 1016.31
1011.90 1013.28 1014.71 1015.98 1016.84 1017.14 1016.77 1015.76 1014.21 1012.32 1010.34 1008.50 1006.99 1005.95 1005.41 1005.35 1005.64 1006.17 1006.79 1007.39 1007.90 1008.32 1008.66 1008.97 1009.32 1009.75 1010.27 1010.86 1011.49 1012.10 1012.65 1013.08 1013.41 1013.63 1013.79 1013.94 1014.12 1014.37 1014.69 1015.08 1015.50 1015.92 1016.29 1016.58 1016.77 1016.88 1016.90 1016.89 1016.88
1012.22 1013.52 1014.86 1016.01 1016.78 1016.99 1016.58 1015.54 1014.00 1012.12 1010.14 1008.29 1006.75 1005.65 1005.02 1004.84 1005.03 1005.45 1006.00 1006.56 1007.07 1007.51 1007.90 1008.28 1008.70 1009.18 1009.75 1010.38 1011.04 1011.69 1012.28 1012.78 1013.18 1013.49 1013.75 1014.00 1014.27 1014.59 1014.97 1015.40 1015.86 1016.30 1016.69 1017.00 1017.22 1017.36 1017.42 1017.44 1017.46
1012.42 1013.56 1014.73 1015.72 1016.37 1016.51 1016.08 1015.10 1013.66 1011.91 1010.06 1008.32 1006.84 1005.73 1005.05 1004.77 1004.82 1005.11 1005.52 1005.98 1006.43 1006.85 1007.25 1007.66 1008.13 1008.66 1009.27 1009.94 1010.64 1011.32 1011.95 1012.50 1012.97 1013.36 1013.71 1014.05 1014.40 1014.80 1015.25 1015.72 1016.21 1016.67 1017.08 1017.41 1017.66 1017.82 1017.92 1017.98 1018.03
1012.46 1013.39 1014.33 1015.13 1015.63 1015.72 1015.33 1014.47 1013.22 1011.70 1010.09 1008.56 1007.22 1006.18 1005.49 1005.12 1005.03 1005.14 1005.39 1005.69 1006.02 1006.37 1006.74 1007.16 1007.65 1008.22 1008.87 1009.57 1010.29 1011.00 1011.67 1012.26 1012.78 1013.25 1013.67 1014.09 1014.53 1015.00 1015.51 1016.03 1016.55 1017.04 1017.46 1017.81 1018.08 1018.28 1018.41 1018.51 1018.59
Thickness
5816 5814 5810 5799 5782 5764 5759 5770 5781 5782 5783 5790 5792 5788 5780 5774 5768 5764 5787 5797 5797 5796 5796 5795 5795 5794 5794 5793 5793 5794 5794 5793 5791 5790 5789 5788 5787 5786 5786 5784 5783 5782 5781 5779 5777 5776 5774 5772 5771
5818 5815 5805 5792 5768 5750 5758 5777 5780 5785 5791 5796 5794 5789 5782 5778 5785 5785 5790 5795 5796 5796 5795 5794 5794 5793 5792 5792 5791 5791 5791 5790 5789 5789 5788 5788 5787 5786 5786 5784 5783 5782 5780 5778 5777 5775 5773 5771 5770
5820 5816 5798 5782 5766 5756 5764 5781 5786 5793 5799 5797 5790 5789 5783 5780 5786 5788 5793 5796 5795 5794 5794 5793 5793 5792 5791 5790 5790 5789 5789 5788 5788 5787 5787 5787 5787 5786 5786 5784 5783 5781 5779 5778 5776 5774 5772 5771 5769
5818 5807 5795 5776 5768 5776 5782 5788 5794 5794 5797 5798 5791 5782 5786 5792 5792 5793 5796 5796 5794 5793 5792 5792 5791 5790 5789 5788 5788 5787 5787 5787 5786 5786 5786 5786 5786 5785 5785 5784 5783 5781 5779 5777 5775 5774 5772 5770 5767
5816 5798 5779 5767 5772 5785 5794 5799 5799 5792 5792 5793 5789 5778 5780 5792 5797 5797 5795 5794 5792 5791 5791 5790 5790 5789 5788 5787 5786 5786 5786 5785 5785 5784 5784 5784 5784 5784 5784 5783 5782 5780 5778 5776 5775 5773 5771 5768 5766
5803 5791 5768 5761 5773 5789 5797 5803 5800 5793 5792 5793 5788 5779 5780 5792 5794 5794 5795 5793 5792 5790 5790 5789 5788 5787 5786 5786 5785 5785 5784 5784 5783 5783 5783 5782 5782 5782 5782 5782 5781 5779 5778 5776 5774 5772 5770 5767 5765
5799 5784 5771 5770 5773 5784 5797 5805 5798 5793 5791 5793 5793 5779 5781 5790 5794 5796 5795 5793 5791 5790 5788 5787 5787 5786 5785 5784 5784 5784 5783 5782 5782 5782 5781 5780 5780 5780 5780 5780 5779 5778 5776 5775 5773 5772 5769 5767 5764
5808 5789 5776 5774 5776 5784 5802 5805 5805 5799 5795 5804 5800 5782 5780 5791 5796 5796 5793 5791 5790 5789 5787 5786 5785 5785 5784 5783 5783 5782 5782 5781 5781 5780 5779 5778 5778 5777 5777 5777 5777 5776 5775 5774 5772 5770 5768 5765 5763
5814 5784 5772 5780 5784 5792 5805 5802 5806 5811 5804 5802 5802 5797 5796 5799 5797 5792 5788 5787 5786 5787 5786 5785 5785 5784 5783 5782 5781 5781 5781 5780 5779 5778 5777 5776 5775 5775 5774 5775 5775 5774 5773 5772 5770 5768 5766 5764 5763
5804 5779 5787 5801 5804 5803 5806 5804 5805 5802 5795 5794 5796 5799 5800 5798 5793 5788 5785 5783 5783 5783 5784 5785 5784 5784 5782 5781 5780 5779 5779 5778 5777 5776 5776 5775 5774 5773 5772 5772 5772 5771 5770 5769 5768 5766 5764 5762 5761
5806 5793 5803 5812 5817 5815 5808 5807 5809 5798 5789 5794 5794 5795 5797 5794 5791 5788 5786 5785 5785 5785 5785 5785 5784 5783 5782 5781 5780 5779 5778 5777 5776 5775 5775 5773 5772 5771 5771 5770 5769 5769 5767 5766 5765 5763 5762 5760 5759
5808 5809 5814 5817 5823 5818 5811 5810 5806 5802 5803 5811 5807 5803 5799 5794 5791 5790 5788 5788 5788 5786 5785 5785 5785 5784 5783 5781 5780 5779 5778 5777 5776 5775 5774 5773 5771 5770 5769 5768 5767 5766 5765 5764 5763 5762 5760 5759 5758
5811 5813 5821 5824 5823 5820 5816 5809 5807 5807 5813 5814 5809 5804 5799 5795 5793 5793 5792 5791 5789 5787 5786 5786 5786 5784 5784 5782 5781 5780 5778 5777 5776 5775 5773 5772 5771 5769 5768 5767 5766 5765 5764 5763 5762 5760 5758 5757 5756
5817 5818 5819 5821 5821 5820 5812 5809 5807 5807 5814 5810 5805 5801 5800 5798 5796 5794 5792 5790 5789 5789 5788 5788 5787 5786 5785 5783 5781 5780 5779 5777 5776 5774 5773 5772 5771 5769 5768 5767 5765 5764 5763 5762 5760 5759 5758 5757 5756
5823 5812 5812 5816 5819 5817 5813 5799 5804 5813 5813 5806 5804 5802 5801 5799 5798 5796 5795 5793 5792 5791 5790 5789 5789 5788 5786 5784 5783 5781 5779 5777 5776 5774 5773 5772 5771 5769 5768 5766 5765 5763 5762 5761 5759 5758 5757 5756 5755
5813 5800 5791 5809 5816 5817 5805 5786 5807 5815 5810 5803 5803 5803 5801 5800 5800 5800 5799 5796 5795 5793 5791 5791 5791 5789 5787 5785 5783 5782 5780 5778 5776 5775 5773 5772 5771 5769 5768 5765 5764 5763 5761 5760 5758 5756 5755 5754 5753
5792 5782 5786 5799 5814 5813 5803 5792 5808 5814 5809 5803 5803 5802 5801 5800 5800 5801 5801 5799 5797 5794 5793 5791 5791 5789 5787 5785 5783 5782 5780 5778 5776 5775 5773 5772 5770 5769 5768 5765 5763 5762 5760 5758 5757 5755 5754 5752 5752
5780 5783 5787 5790 5806 5806 5798 5796 5806 5811 5809 5804 5803 5802 5801 5800 5801 5803 5802 5800 5798 5796 5794 5792 5791 5789 5788 5785 5782 5780 5778 5777 5776 5774 5773 5772 5770 5769 5767 5765 5763 5761 5759 5757 5755 5753 5753 5751 5751
5797 5790 5786 5795 5809 5801 5794 5795 5802 5808 5806 5803 5802 5801 5800 5801 5805 5804 5802 5801 5798 5795 5793 5792 5790 5789 5787 5783 5780 5777 5775 5775 5774 5774 5773 5772 5770 5768 5766 5764 5762 5760 5757 5756 5754 5753 5750 5749 5749
5796 5787 5787 5797 5807 5800 5792 5794 5803 5807 5807 5806 5804 5802 5802 5801 5802 5802 5801 5799 5797 5795 5793 5791 5790 5788 5787 5785 5782 5779 5777 5775 5774 5773 5772 5771 5770 5768 5766 5764 5761 5759 5757 5755 5753 5751 5748 5747 5747
5793 5788 5789 5790 5796 5797 5790 5784 5793 5803 5808 5809 5808 5807 5806 5804 5802 5801 5800 5798 5797 5795 5794 5792 5789 5788 5786 5785 5781 5778 5775 5774 5772 5770 5770 5770 5768 5767 5765 5763 5761 5759 5756 5754 5752 5750 5748 5744 5744
5787 5803 5800 5793 5779 5769 5779 5757 5782 5791 5796 5802 5805 5807 5807 5807 5806 5803 5801 5799 5799 5798 5797 5793 5790 5788 5787 5785 5781 5776 5772 5769 5770 5769 5769 5768 5767 5766 5764 5762 5760 5758 5756 5753 5752 5751 5748 5745 5742
5800 5807 5799 5790 5777 5765 5769 5758 5769 5786 5787 5796 5805 5809 5810 5810 5808 5806 5805 5804 5802 5800 5797 5794 5790 5787 5786 5783 5781 5777 5773 5771 5770 5769 5768 5767 5766 5765 5763 5761 5759 5757 5755 5753 5751 5750 5748 5745 5742
5809 5797 5786 5773 5763 5750 5761 5755 5760 5776 5789 5799 5807 5810 5811 5811 5810 5808 5807 5804 5801 5799 5797 5794 5789 5786 5785 5782 5779 5777 5773 5770 5768 5766 5765 5764 5764 5763 5762 5760 5758 5756 5754 5752 5750 5748 5746 5744 5742
5799 5773 5749 5746 5736 5742 5762 5757 5763 5792 5801 5806 5808 5810 5811 5811 5809 5806 5803 5801 5799 5797 5795 5793 5789 5785 5784 5781 5778 5776 5773 5770 5768 5766 5764 5762 5761 5760 5760 5759 5757 5755 5753 5751 5749 5747 5745 5743 5741
5789 5777 5748 5736 5733 5742 5756 5753 5776 5801 5807 5811 5812 5812 5811 5809 5808 5806 5805 5802 5799 5797 5794 5792 5788 5784 5782 5780 5778 5776 5773 5770 5768 5766 5764 5762 5760 5759 5759 5757 5755 5753 5751 5749 5747 5745 5743 5742 5740
5785 5773 5775 5750 5743 5737 5745 5760 5781 5800 5802 5805 5807 5807 5806 5807 5807 5805 5804 5801 5799 5796 5794 5791 5787 5784 5781 5779 5777 5774 5772 5769 5767 5765 5763 5761 5759 5758 5756 5755 5753 5751 5749 5747 5745 5742 5741 5739 5738
5796 5778 5760 5745 5730 5728 5742 5750 5761 5784 5791 5797 5799 5800 5802 5804 5804 5804 5802 5800 5798 5796 5793 5791 5787 5783 5780 5779 5775 5773 5770 5768 5765 5763 5760 5758 5756 5755 5753 5751 5749 5748 5746 5744 5742 5740 5739 5737 5735
5783 5773 5757 5743 5742 5728 5726 5747 5785 5787 5792 5793 5796 5799 5799 5801 5802 5801 5799 5798 5796 5794 5791 5787 5784 5781 5777 5775 5772 5769 5767 5765 5763 5760 5758 5756 5754 5752 5750 5748 5746 5745 5743 5742 5739 5737 5736 5734 5732
5788 5777 5761 5750 5740 5733 5731 5750 5795 5794 5795 5794 5794 5797 5799 5799 5800 5799 5797 5794 5792 5789 5787 5784 5782 5778 5775 5772 5769 5766 5763 5761 5759 5757 5755 5754 5751 5750 5748 5746 5743 5741 5740 5738 5736 5734 5733 5731 5729